FW2126 Weather Reports


Display with metric or nautical units.
time (UTC)temp
F
wind
direction
speed
MPH
gust
MPH
rain 1hr
in
rain 24hr
in
rain mn
in
humidity
%
barometer
mb
20260906204530 79 150 21.0 32.0 0.00 0.03 0.03 66 1008.1
20260906203029 84 131 25.0 33.0 0.00 0.03 0.03 58 1007.7
20260906201529 90 126 20.0 28.0 0.00 0.03 0.03 50 1007.8
20260906200028 89 130 19.0 28.0 0.00 0.03 0.03 48 1007.6
20260906194536 89 130 18.0 26.0 0.00 0.03 0.03 49 1007.8
20260906193025 91 182 12.0 18.0 0.00 0.03 0.03 45 1008.0
20260906191524 91 142 11.0 16.0 0.00 0.03 0.03 44 1008.0
20260906190022 91 139 13.0 20.0 0.00 0.03 0.03 45 1008.3
20260906184531 91 141 10.0 18.0 0.00 0.03 0.03 45 1008.3
20260906183025 90 126 15.0 20.0 0.00 0.03 0.03 47 1008.6
20260906181543 89 165 10.0 21.0 0.00 0.03 0.03 47 1008.8
20260906180015 89 132 14.0 23.0 0.00 0.03 0.03 47 1009.1
20260906174514 88 137 16.0 25.0 0.00 0.03 0.03 49 1009.2
20260906173008 87 144 15.0 19.0 0.00 0.03 0.03 51 1009.6
20260906171505 85 147 9.0 13.0 0.00 0.03 0.03 54 1009.7
20260906170001 84 202 7.0 10.0 0.00 0.03 0.03 56 1009.8
20260906164559 83 188 6.0 11.0 0.00 0.03 0.03 58 1009.9
20260906163103 82 193 6.0 9.0 0.00 0.03 0.03 61 1009.8
20260906161604 81 192 6.0 10.0 0.00 0.03 0.03 62 1009.8
20260906160052 80 188 7.0 12.0 0.00 0.03 0.03 62 1009.9
20260906154551 80 189 6.0 11.0 0.00 0.03 0.03 64 1009.7
20260906153048 78 155 7.0 14.0 0.00 0.03 0.03 68 1009.7
20260906151548 77 156 6.0 10.0 0.00 0.03 0.03 70 1009.7
20260906150048 76 128 7.0 11.0 0.00 0.03 0.03 71 1009.7
20260906144547 75 161 6.0 9.0 0.00 0.03 0.03 73 1009.6
20260906143050 75 161 5.0 9.0 0.00 0.03 0.03 74 1009.4
20260906141545 74 140 5.0 10.0 0.00 0.03 0.03 77 1009.3
20260906140058 72 196 4.0 7.0 0.00 0.03 0.03 79 1009.3
20260906134549 71 130 4.0 9.0 0.00 0.03 0.03 81 1009.1
20260906133042 71 138 5.0 11.0 0.00 0.03 0.03 82 1009.0
20260906131541 71 121 6.0 10.0 0.00 0.03 0.03 82 1008.8
20260906130042 71 157 6.0 9.0 0.01 0.03 0.03 83 1008.7
20260906124542 70 134 6.0 10.0 0.01 0.03 0.03 83 1008.4
20260906123039 71 137 6.0 9.0 0.01 0.03 0.03 83 1008.4
20260906121539 71 134 8.0 11.0 0.01 0.03 0.03 84 1008.2
20260906120038 71 134 9.0 14.0 0.00 0.02 0.02 85 1008.2
20260906114544 70 128 7.0 11.0 0.00 0.02 0.02 87 1008.1
20260906113035 70 128 8.0 10.0 0.00 0.02 0.02 86 1008.3
20260906111533 70 128 6.0 12.0 0.00 0.02 0.02 87 1008.4
20260906110034 70 119 8.0 11.0 0.00 0.02 0.02 88 1008.4
20260906104529 70 132 8.0 11.0 0.00 0.02 0.02 88 1008.3
20260906103027 70 127 7.0 9.0 0.00 0.02 0.02 88 1008.3
20260906101526 71 118 7.0 9.0 0.00 0.02 0.02 86 1008.5
20260906100028 72 88 3.0 6.0 0.00 0.02 0.02 84 1008.5
20260906094522 72 117 3.0 7.0 0.00 0.02 0.02 83 1008.6
20260906093021 72 134 5.0 9.0 0.00 0.02 0.02 83 1008.5
20260906091524 72 142 8.0 12.0 0.00 0.02 0.02 83 1008.4
20260906090021 72 134 10.0 13.0 0.00 0.02 0.02 83 1008.2
20260906084517 72 136 11.0 14.0 0.00 0.02 0.02 83 1008.2
20260906083016 71 139 8.0 11.0 0.00 0.02 0.02 85 1008.2
20260906081512 71 129 6.0 11.0 0.00 0.02 0.02 84 1008.4
20260906080010 71 121 8.0 11.0 0.01 0.02 0.02 84 1008.8
20260906074507 71 109 7.0 13.0 0.01 0.02 0.02 85 1009.1
20260906073004 71 60 8.0 15.0 0.02 0.02 0.02 85 1009.2
20260906071502 71 52 9.0 13.0 0.02 0.02 0.02 84 1009.4
20260906070058 72 76 7.0 13.0 0.01 0.01 0.01 81 1009.4
20260906064559 73 84 11.0 18.0 0.01 0.02 0.01 79 1009.6
20260906063056 72 10 11.0 21.0 0.00 0.01 0.00 78 1009.6
20260906061553 74 346 7.0 16.0 0.00 0.01 0.00 74 1010.0
20260906060117 75 12 9.0 16.0 0.00 0.01 0.00 69 1010.2
20260906054544 76 5 11.0 18.0 0.00 0.02 0.00 66 1009.5
20260906053040 77 30 10.0 17.0 0.00 0.02 0.00 64 1009.3
20260906051536 79 360 10.0 14.0 0.00 0.02 0.00 61 1009.1
20260906050033 80 5 4.0 11.0 0.00 0.02 0.00 58 1009.3
20260906044530 78 20 3.0 14.0 0.00 0.02 0.02 63 1009.1
20260906043029 80 321 5.0 8.0 0.00 0.02 0.02 54 1008.8
20260906041531 81 138 5.0 9.0 0.00 0.02 0.02 53 1008.3
20260906040035 81 130 5.0 11.0 0.00 0.02 0.02 54 1008.1
20260906034532 81 124 9.0 12.0 0.00 0.02 0.02 56 1007.9
20260906033027 80 100 6.0 11.0 0.00 0.02 0.02 60 1007.9
20260906031544 81 111 7.0 11.0 0.00 0.02 0.02 58 1007.9
20260906030026 82 109 7.0 13.0 0.00 0.02 0.02 56 1007.7
20260906024527 82 119 10.0 13.0 0.00 0.02 0.02 55 1007.4
20260906023024 81 109 7.0 12.0 0.00 0.02 0.02 57 1006.9
20260906021524 81 109 10.0 16.0 0.00 0.02 0.02 57 1006.4
20260906020023 81 80 8.0 12.0 0.00 0.02 0.02 56 1006.1
20260906014526 82 89 8.0 11.0 0.00 0.02 0.02 55 1006.0
20260906013022 83 116 6.0 11.0 0.00 0.02 0.02 53 1006.0
20260906011523 84 100 8.0 13.0 0.00 0.02 0.02 52 1005.6
20260906010022 85 130 10.0 16.0 0.00 0.02 0.02 50 1005.6
20260906004520 86 117 11.0 17.0 0.00 0.02 0.02 49 1005.7
20260906003023 87 119 13.0 27.0 0.00 0.02 0.02 44 1005.6
20260906001519 90 125 14.0 21.0 0.00 0.02 0.02 42 1005.4
20260906000020 94 130 12.0 16.0 0.00 0.02 0.02 34 1004.9
20260905234618 93 170 9.0 17.0 0.00 0.02 0.02 36 1004.8
20260905233018 93 153 9.0 15.0 0.00 0.02 0.02 36 1004.6
20260905231524 94 201 8.0 20.0 0.00 0.02 0.02 35 1004.6
20260905230016 95 135 14.0 22.0 0.00 0.02 0.02 33 1004.4
20260905224518 96 171 7.0 16.0 0.00 0.02 0.02 32 1004.2
20260905223014 96 198 7.0 12.0 0.00 0.02 0.02 30 1004.3
20260905221513 96 202 7.0 13.0 0.00 0.02 0.02 29 1004.1
20260905220014 97 194 9.0 16.0 0.00 0.02 0.02 30 1004.1
20260905214511 98 186 6.0 14.0 0.00 0.02 0.02 28 1004.1
20260905213110 98 145 11.0 17.0 0.00 0.02 0.02 28 1004.3
20260905211505 99 252 2.0 12.0 0.00 0.02 0.02 28 1004.5
20260905210002 99 211 6.0 16.0 0.00 0.02 0.02 29 1004.8